Phillips, WI

2:05 AM CDT on May 25, 2017 (GMT -0500)
Price County

Weather History for KPBH - February, 2013

Change the Weather History Date:

Monday, February 11, 2013

  Actual Average Record
Temperature  
Mean Temperature 29 °F -  
Max Temperature 35 °F 25 °F 46 °F (1999)
Min Temperature 23 °F 7 °F -27 °F (2014)
Degree Days  
Heating Degree Days 36    
Moisture  
Dew Point 27 °F    
Average Humidity 91    
Maximum Humidity 100    
Minimum Humidity 86    
Precipitation  
Precipitation 0.00 in - - ()
Sea Level Pressure  
Sea Level Pressure 29.56 in    
Wind  
Wind Speed 3 mph (NW)    
Max Wind Speed 9 mph    
Max Gust Speed -    
Visibility 6 miles    
Events Snow    
Averages and records for this station are not official NWS values.
T = Trace of Precipitation, MM = Missing Value Source: NWS Daily Summary

Daily Weather History Graph

Daily Weather History Graph

Search for Another Location

Airport or City:

Trip Planner

Search our weather history database for the weather conditions in past years. The results will help you decide how hot, cold, wet, or windy it might be!

Date:

Astronomy

Feb. 11, 2013 Rise Set
Actual Time 7:09 AM CST 5:22 PM CST
Civil Twilight 6:38 AM CST 5:53 PM CST
Nautical Twilight 6:03 AM CST 6:28 PM CST
Astronomical Twilight 5:29 AM CST 7:03 PM CST
Moon 7:26 AM CST (2/11) 7:29 PM CST (2/11)
Length of Visible Light 11h 15m
Length of Day
10h 13m
Waxing Crescent, 3% of the Moon is Illuminated
Feb 11
Waxing Crescent
Feb 17
First Quarter
Feb 25
Full
Mar 4
Last Quarter
Mar 11
New

Hourly Weather History & Observations

Time (CST) Temp. Windchill Dew Point Humidity Pressure Visibility Wind Dir Wind Speed Gust Speed Precip Events Conditions
12:15 AM 35.6 °F - 33.8 °F 93% 29.24 in 3.0 mi Calm Calm - N/A Snow Light Snow
12:35 AM 35.6 °F - 33.8 °F 93% 29.24 in 2.0 mi Calm Calm - N/A Snow Light Snow
12:55 AM 35.6 °F - 33.8 °F 93% 29.24 in 2.0 mi Calm Calm - N/A Snow Light Snow
1:15 AM 35.6 °F - 33.8 °F 93% 29.23 in 3.0 mi Calm Calm - N/A Snow Light Snow
1:35 AM 35.6 °F - 33.8 °F 93% 29.23 in 2.0 mi Calm Calm - N/A Snow Light Snow
1:55 AM 35.6 °F - 35.6 °F 100% 29.23 in 3.0 mi Calm Calm - N/A Snow Light Snow
2:15 AM 35.6 °F - 33.8 °F 93% 29.23 in 1.5 mi Calm Calm - N/A Snow Light Snow
2:35 AM 35.6 °F - 33.8 °F 93% 29.23 in 2.0 mi Calm Calm - N/A Snow Light Snow
2:55 AM 35.6 °F - 33.8 °F 93% 29.23 in 1.2 mi Calm Calm - N/A Snow Light Snow
3:15 AM 35.6 °F - 33.8 °F 93% 29.23 in 1.2 mi Calm Calm - N/A Snow Light Snow
3:35 AM 35.6 °F - 33.8 °F 93% 29.23 in 1.2 mi Calm Calm - N/A Snow Light Snow
3:55 AM 35.6 °F - 33.8 °F 93% 29.24 in 2.5 mi Calm Calm - N/A Snow Light Snow
4:15 AM 35.6 °F 31.7 °F 33.8 °F 93% 29.25 in 1.8 mi NNW 4.6 mph - N/A Snow Light Snow
4:35 AM 33.8 °F 29.6 °F 33.8 °F 100% 29.26 in 3.0 mi NNW 4.6 mph - N/A Snow Light Snow
4:55 AM 33.8 °F 28.6 °F 33.8 °F 100% 29.26 in 7.0 mi NNW 5.8 mph - N/A Snow Light Snow
5:15 AM 33.8 °F 29.6 °F 33.8 °F 100% 29.27 in 3.0 mi NNW 4.6 mph - N/A Snow Light Snow
5:55 AM 33.8 °F 28.6 °F 32.0 °F 93% 29.30 in 1.0 mi NW 5.8 mph - N/A Snow Snow
6:15 AM 33.8 °F 30.8 °F 32.0 °F 93% 29.32 in 1.2 mi WNW 3.5 mph - N/A Snow Light Snow
6:35 AM 33.8 °F 28.6 °F 32.0 °F 93% 29.33 in 1.5 mi WNW 5.8 mph - N/A Snow Light Snow
6:55 AM 33.8 °F 29.6 °F 30.2 °F 87% 29.35 in 1.8 mi WNW 4.6 mph - N/A Snow Light Snow
7:15 AM 33.8 °F 27.7 °F 30.2 °F 87% 29.37 in 2.0 mi NW 6.9 mph - N/A Snow Light Snow
7:35 AM 32.0 °F 24.8 °F 30.2 °F 93% 29.39 in 10.0 mi NW 8.1 mph - N/A   Overcast
7:55 AM 32.0 °F 26.4 °F 30.2 °F 93% 29.41 in 7.0 mi NW 5.8 mph - N/A Snow Light Snow
8:15 AM 32.0 °F 25.6 °F 28.4 °F 87% 29.43 in 3.0 mi NW 6.9 mph - N/A Snow Light Snow
8:35 AM 30.2 °F 24.3 °F 28.4 °F 93% 29.45 in 2.5 mi NW 5.8 mph - N/A Snow Light Snow
8:55 AM 30.2 °F 21.9 °F 28.4 °F 93% 29.46 in 3.0 mi NW 9.2 mph - N/A   Overcast
9:15 AM 30.2 °F 24.3 °F 28.4 °F 93% 29.48 in 5.0 mi NW 5.8 mph - N/A   Overcast
9:35 AM 30.2 °F 23.4 °F 28.4 °F 93% 29.48 in 5.0 mi NW 6.9 mph - N/A   Overcast
9:55 AM 30.2 °F 23.4 °F 28.4 °F 93% 29.50 in 4.0 mi NW 6.9 mph - N/A   Overcast
10:15 AM 30.2 °F 21.9 °F 28.4 °F 93% 29.51 in 7.0 mi NW 9.2 mph - N/A Snow Light Snow
10:35 AM 28.4 °F 21.2 °F 26.6 °F 93% 29.52 in 5.0 mi NW 6.9 mph - N/A   Overcast
10:55 AM 28.4 °F 22.2 °F 26.6 °F 93% 29.54 in 7.0 mi NW 5.8 mph - N/A Snow Light Snow
11:15 AM 28.4 °F 20.4 °F 26.6 °F 93% 29.55 in 10.0 mi WNW 8.1 mph - N/A   Overcast
11:35 AM 28.4 °F 20.4 °F 26.6 °F 93% 29.56 in 10.0 mi NW 8.1 mph - N/A   Overcast
11:55 AM 28.4 °F 22.2 °F 26.6 °F 93% 29.57 in 10.0 mi WNW 5.8 mph - N/A   Overcast
12:15 PM 28.4 °F 21.2 °F 24.8 °F 86% 29.58 in 10.0 mi WNW 6.9 mph - N/A   Overcast
12:35 PM 28.4 °F 22.2 °F 24.8 °F 86% 29.59 in 10.0 mi WNW 5.8 mph - N/A Snow Light Snow
12:55 PM 26.6 °F 20.0 °F 24.8 °F 93% 29.60 in 10.0 mi NW 5.8 mph - N/A   Overcast
1:15 PM 26.6 °F 18.2 °F 24.8 °F 93% 29.61 in 10.0 mi WNW 8.1 mph - N/A   Overcast
1:35 PM 26.6 °F 21.2 °F 24.8 °F 93% 29.62 in 10.0 mi WNW 4.6 mph - N/A   Overcast
1:55 PM 26.6 °F 17.5 °F 24.8 °F 93% 29.64 in 7.0 mi WNW 9.2 mph - N/A Snow Light Snow
2:15 PM 26.6 °F 20.0 °F 24.8 °F 93% 29.65 in 7.0 mi WNW 5.8 mph - N/A Snow Light Snow
2:35 PM 26.6 °F 21.2 °F 24.8 °F 93% 29.66 in 5.0 mi WNW 4.6 mph - N/A Snow Light Snow
2:55 PM 26.6 °F 21.2 °F 24.8 °F 93% 29.68 in 4.0 mi West 4.6 mph - N/A Snow Light Snow
3:15 PM 26.6 °F 22.6 °F 24.8 °F 93% 29.69 in 4.0 mi WNW 3.5 mph - N/A Snow Light Snow
3:35 PM 26.6 °F 20.0 °F 24.8 °F 93% 29.70 in 7.0 mi WNW 5.8 mph - N/A Snow Light Snow
3:55 PM 26.6 °F 22.6 °F 23.0 °F 86% 29.71 in 3.0 mi West 3.5 mph - N/A Snow Light Snow
4:55 PM 24.8 °F 17.9 °F 21.2 °F 86% 29.74 in 7.0 mi NW 5.8 mph - N/A Snow Light Snow
5:15 PM 24.8 °F 19.1 °F 21.2 °F 86% 29.76 in 7.0 mi WNW 4.6 mph - N/A Snow Light Snow
5:35 PM 24.8 °F 17.9 °F 21.2 °F 86% 29.77 in 7.0 mi WNW 5.8 mph - N/A Snow Light Snow
5:55 PM 24.8 °F 16.9 °F 21.2 °F 86% 29.78 in 7.0 mi NW 6.9 mph - N/A Snow Light Snow
6:15 PM 24.8 °F 20.5 °F 21.2 °F 86% 29.79 in 10.0 mi WNW 3.5 mph - N/A Snow Light Snow
6:35 PM 24.8 °F 20.5 °F 21.2 °F 86% 29.80 in 10.0 mi WNW 3.5 mph - N/A   Overcast
6:55 PM 24.8 °F 19.1 °F 21.2 °F 86% 29.81 in 10.0 mi WNW 4.6 mph - N/A   Overcast
7:15 PM 24.8 °F 20.5 °F 21.2 °F 86% 29.82 in 10.0 mi West 3.5 mph - N/A Snow Light Snow
7:35 PM 24.8 °F 19.1 °F 21.2 °F 86% 29.83 in 10.0 mi WNW 4.6 mph - N/A Snow Light Snow
7:55 PM 24.8 °F 19.1 °F 21.2 °F 86% 29.83 in 10.0 mi WNW 4.6 mph - N/A Snow Light Snow
8:15 PM 24.8 °F 20.5 °F 21.2 °F 86% 29.84 in 10.0 mi WNW 3.5 mph - N/A Snow Light Snow
8:35 PM 24.8 °F - 21.2 °F 86% 29.85 in 10.0 mi Calm Calm - N/A Snow Light Snow
8:55 PM 24.8 °F 16.9 °F 21.2 °F 86% 29.86 in 10.0 mi NW 6.9 mph - N/A Snow Light Snow
9:15 PM 23.0 °F 15.8 °F 19.4 °F 86% 29.86 in 10.0 mi WNW 5.8 mph - N/A Snow Light Snow
9:35 PM 23.0 °F 14.7 °F 19.4 °F 86% 29.87 in 10.0 mi WNW 6.9 mph - N/A Snow Light Snow
9:55 PM 23.0 °F 17.0 °F 19.4 °F 86% 29.87 in 10.0 mi WNW 4.6 mph - N/A Snow Light Snow
10:15 PM 23.0 °F - 21.2 °F 93% 29.88 in 10.0 mi Calm Calm - N/A Snow Light Snow
10:35 PM 23.0 °F 18.4 °F 19.4 °F 86% 29.88 in 10.0 mi WNW 3.5 mph - N/A Snow Light Snow
10:55 PM 23.0 °F 17.0 °F 21.2 °F 93% 29.89 in 10.0 mi West 4.6 mph - N/A Snow Light Snow
11:15 PM 23.0 °F 17.0 °F 19.4 °F 86% 29.89 in 10.0 mi WNW 4.6 mph - N/A Snow Light Snow
11:35 PM 23.0 °F 17.0 °F 19.4 °F 86% 29.90 in 10.0 mi West 4.6 mph - N/A Snow Light Snow
11:55 PM 23.0 °F 18.4 °F 19.4 °F 86% 29.90 in 10.0 mi West 3.5 mph - N/A Snow Light Snow